Location: *
(29.1167°S, 130.0000°E)
Time: 08:44:21
(UTC+00:00)

Cosmos 1000 Rocket - Pass Details

Date: 21 July 2019
Orbit: 953 x 993 km, 82.9° (Epoch: 23 August)

Event Time Altitude Azimuth Distance (km) Brightness Sun altitude
Rises 08:52:55 0° 0° (N) 3,619 7.8 -2.9°
Reaches altitude 10° 08:55:24 10° 1° (N) 2,678 7.1 -3.4°
Maximum altitude 09:01:30 78° 86° (E) 983 4.5 -4.7°
Drops below altitude 10° 09:07:41 10° 171° (S) 2,705 6.6 -5.9°
Sets 09:10:12 0° 172° (S) 3,659 7.2 -6.5°
